| time (UTC) | temp F | wind direction | speed knots | gust knots | rain 1hr in | rain 24hr in | rain mn in | humidity % | barometer mb |
| 20260508033017 | 54 | 0 | 4.3 | 6.1 | 0.00 | 0.01 | 0.01 | 74 | 991.6 |
| 20260508030017 | 55 | 0 | 4.3 | 5.2 | 0.00 | 0.01 | 0.01 | 72 | 991.5 |
| 20260508023037 | 55 | 0 | 4.3 | 6.1 | 0.00 | 0.01 | 0.01 | 71 | 991.4 |
| 20260508020017 | 56 | 0 | 3.5 | 5.2 | 0.00 | 0.01 | 0.01 | 68 | 991.1 |
| 20260508013017 | 57 | 0 | 3.5 | 6.1 | 0.00 | 0.01 | 0.01 | 67 | 990.9 |
| 20260508010017 | 57 | 0 | 2.6 | 4.3 | 0.01 | 0.01 | 0.01 | 68 | 990.8 |
| 20260508003017 | 60 | 0 | 1.7 | 6.1 | 0.01 | 0.01 | 0.01 | 64 | 990.7 |
| 20260508000017 | 62 | 0 | 0.9 | 3.5 | 0.00 | 0.00 | 0.00 | 56 | 991.0 |
| 20260507233037 | 62 | 0 | 2.6 | 4.3 | 0.00 | 0.00 | 0.00 | 57 | 990.8 |
| 20260507230017 | 63 | 0 | 1.7 | 3.5 | 0.00 | 0.00 | 0.00 | 52 | 991.0 |
| 20260507223017 | 62 | 0 | 9.6 | 20.0 | 0.00 | 0.00 | 0.00 | 58 | 991.3 |
| 20260507220017 | 66 | 0 | 4.3 | 11.3 | 0.00 | 0.00 | 0.00 | 47 | 991.1 |
| 20260507213017 | 63 | 0 | 3.5 | 10.4 | 0.00 | 0.00 | 0.00 | 57 | 991.2 |
| 20260507210037 | 58 | 0 | 13.9 | 37.4 | 0.00 | 0.00 | 0.00 | 65 | 991.6 |
| 20260507203017 | 64 | 0 | 9.6 | 23.5 | 0.00 | 0.00 | 0.00 | 44 | 991.6 |
| 20260507200017 | 66 | 0 | 6.1 | 16.5 | 0.00 | 0.00 | 0.00 | 43 | 991.9 |
| 20260507193017 | 66 | 0 | 7.0 | 16.5 | 0.00 | 0.00 | 0.00 | 43 | 992.4 |
| 20260507190017 | 65 | 0 | 7.0 | 19.1 | 0.00 | 0.00 | 0.00 | 45 | 992.7 |
| 20260507183017 | 63 | 0 | 5.2 | 13.9 | 0.00 | 0.00 | 0.00 | 47 | 993.0 |
| 20260507180017 | 63 | 0 | 6.1 | 14.8 | 0.00 | 0.00 | 0.00 | 48 | 993.4 |
| 20260507173018 | 62 | 0 | 8.7 | 19.1 | 0.00 | 0.00 | 0.00 | 50 | 993.9 |
| 20260507170017 | 60 | 0 | 9.6 | 20.9 | 0.00 | 0.00 | 0.00 | 52 | 994.3 |
| 20260507163017 | 59 | 0 | 7.0 | 23.5 | 0.00 | 0.00 | 0.00 | 53 | 994.6 |
| 20260507160017 | 58 | 0 | 8.7 | 18.2 | 0.00 | 0.00 | 0.00 | 54 | 994.8 |
| 20260507153017 | 56 | 0 | 8.7 | 18.2 | 0.00 | 0.00 | 0.00 | 55 | 994.9 |
| 20260507150018 | 56 | 0 | 8.7 | 20.0 | 0.00 | 0.00 | 0.00 | 55 | 994.9 |
| 20260507143037 | 56 | 0 | 14.8 | 20.0 | 0.00 | 0.00 | 0.00 | 55 | 994.5 |
| 20260507140017 | 53 | 0 | 11.3 | 18.2 | 0.00 | 0.00 | 0.00 | 56 | 994.5 |
| 20260507133017 | 51 | 0 | 8.7 | 17.4 | 0.00 | 0.00 | 0.00 | 56 | 994.8 |
| 20260507130017 | 51 | 0 | 9.6 | 18.2 | 0.00 | 0.00 | 0.00 | 57 | 995.4 |
| 20260507123017 | 46 | 0 | 5.2 | 8.7 | 0.00 | 0.00 | 0.00 | 65 | 995.4 |
| 20260507120017 | 43 | 0 | 5.2 | 7.8 | 0.00 | 0.00 | 0.00 | 69 | 995.4 |
| 20260507113017 | 42 | 0 | 5.2 | 7.8 | 0.00 | 0.00 | 0.00 | 69 | 995.6 |
| 20260507110017 | 41 | 0 | 6.1 | 8.7 | 0.00 | 0.00 | 0.00 | 70 | 995.4 |
| 20260507103017 | 40 | 0 | 6.1 | 8.7 | 0.00 | 0.00 | 0.00 | 71 | 995.6 |
| 20260507100017 | 41 | 0 | 5.2 | 7.8 | 0.00 | 0.00 | 0.00 | 68 | 995.6 |
| 20260507093017 | 42 | 0 | 4.3 | 6.1 | 0.00 | 0.00 | 0.00 | 64 | 995.8 |
| 20260507090017 | 43 | 0 | 4.3 | 6.1 | 0.00 | 0.00 | 0.00 | 63 | 996.1 |
| 20260507083019 | 43 | 0 | 3.5 | 5.2 | 0.00 | 0.00 | 0.00 | 61 | 996.3 |
| 20260507080017 | 43 | 0 | 3.5 | 4.3 | 0.00 | 0.00 | 0.00 | 60 | 996.3 |
| 20260507073017 | 44 | 0 | 3.5 | 5.2 | 0.00 | 0.00 | 0.00 | 58 | 996.5 |
| 20260507070017 | 45 | 0 | 4.3 | 6.1 | 0.00 | 0.00 | 0.00 | 57 | 996.5 |
| 20260507063019 | 44 | 0 | 4.3 | 5.2 | 0.00 | 0.00 | 0.00 | 57 | 997.0 |
| 20260507060017 | 46 | 0 | 3.5 | 5.2 | 0.00 | 0.00 | 0.00 | 53 | 997.2 |
| 20260507053017 | 47 | 0 | 2.6 | 4.3 | 0.00 | 0.00 | 0.00 | 50 | 997.4 |
| 20260507050018 | 48 | 0 | 1.7 | 2.6 | 0.00 | 0.00 | 0.00 | 47 | 997.4 |
| 20260507043017 | 47 | 0 | 1.7 | 1.7 | 0.00 | 0.00 | 0.00 | 49 | 997.3 |
| 20260507040017 | 48 | 0 | 1.7 | 2.6 | 0.00 | 0.00 | 0.00 | 48 | 997.3 |